Location: Newark
(51.2000°N, 58.6167°E)
Time: 08:55:25
(UTC+00:00)

Envisat - Pass Details

Date: 06 October 2020
Orbit: 764 x 766 km, 98.1° (Epoch: 23 October)

Event Time Altitude Azimuth Distance (km) Brightness Sun altitude
Rises 14:37:36 0° 213° (SSW) 3,223 6.6 -11.1°
Reaches altitude 10° 14:40:46 10° 234° (SW) 2,302 6.2 -11.6°
Maximum altitude 14:43:55 16° 273° (W) 1,902 6.3 -12.1°
Drops below altitude 10° 14:47:05 10° 312° (NW) 2,313 6.4 -12.6°
Sets 14:50:17 0° 333° (NNW) 3,245 6.8 -13.1°
